Regional Weather Roundup
Issued by NWS Mobile, AL

Home | Current Version | Previous Version | Text Only | Print | Product List | Glossary On
Versions: 1 2 3 4 5 6 7 8 9 10 11 12 13 14 15 16 17 18 19 20 21 22 23 24 25 26 27 28 29 30 31 32 33 34 35 36 37 38 39 40 41 42 43 44 45 46 47 48 49 50
000
ASUS44 KMOB 261310
RWRMOB
REGIONAL WEATHER ROUNDUP
NATIONAL WEATHER SERVICE MOBILE AL
800 AM CDT SAT JUL 26 2014

NOTE: "FAIR" INDICATES FEW OR NO CLOUDS BELOW 12,000 FEET WITH NO
      SIGNIFICANT WEATHER AND/OR OBSTRUCTIONS TO VISIBILITY.

  * THESE STATIONS ARE PART OF THE UNIVERSITY OF SOUTH ALABAMA
    MESONET AND ARE NOT UNDER NWS OR FAA QUALITY CONTROL.

ALZ061>064-261400-
COASTAL ALABAMA

CITY           SKY/WX    TMP DP  RH WIND       PRES   REMARKS
MOBILE REG APT MOSUNNY   77  77 100 SW3       30.08R
BROOKLEY FIELD SUNNY     79  77  94 W6        30.07R
USA CAMPUS*      N/A     79  79 100 CALM      30.05R
DOG RIVER*       N/A     79  77  94 W6        30.07R


CITY           SKY/WX    TMP DP  RH WIND       PRES   REMARKS
MOUNT VERNON*  NOT AVBL
SARALAND*      NOT AVBL
BAY MINETTE*   NOT AVBL
LOXLEY*          N/A     79  79 100 W3        30.06R
ROBERTSDALE*     N/A    N/A N/A N/A CALM      30.06R
FAIRHOPE*        N/A     81  77  89 NW6       30.06R
ELBERTA*         N/A     82  72  69 NW5       30.06R
FOLEY*         NOT AVBL
GRAND BAY*       N/A     79  77  94 CALM      30.05R
DAUPHIN ISLND* NOT AVBL
BON SCOUR NWR* NOT AVBL
GULF SHORES    MOSUNNY   83  77  81 W8        30.06R

$$

ALZ051>060-261400-
INTERIOR SOUTHWEST AND SOUTH CENTRAL ALABAMA

CITY           SKY/WX    TMP DP  RH WIND       PRES   REMARKS
GREENVILLE     SUNNY     80  73  79 VRB3      30.07R
EVERGREEN      SUNNY     78  74  87 CALM      30.07R
CASTLEBERRY*   NOT AVBL
ATMORE*          N/A     77  75  94 CALM      30.09R
DIXIE*         NOT AVBL
ANDALUSIA/OPP  SUNNY     80  74  81 W3        30.07R
ANDALUSIA*     NOT AVBL
FLORALA APT    SUNNY     79  75  87 SW3       30.09R
FLORALA*         N/A     77  75  94 CALM      30.05R

$$

FLZ001>006-261400-
WESTERN FLORIDA PANHANDLE

CITY           SKY/WX    TMP DP  RH WIND       PRES   REMARKS
PENSACOLA      MOSUNNY   80  77  90 NW8       30.06R
NAS PENSACOLA  MOSUNNY   82  79  90 W3        30.06R
MILTON         SUNNY     79  74  84 W3        30.07R
WHTNG S FIELD  SUNNY     79  75  87 NW3       30.07R


CITY           SKY/WX    TMP DP  RH WIND       PRES   REMARKS
WALNUT HILL*   NOT AVBL
JAY*           NOT AVBL
DUKE FIELD     SUNNY     79  78  99 NW5       30.07R
CRESTVIEW      SUNNY     78  75  90 CALM      30.08R FOG
VALPARAISO     MOSUNNY   82  77  84 VRB3      30.07R
DESTIN         MOSUNNY   84  78  82 SW6       30.06R HX  95

$$

MSZ076-079-261400-
INTERIOR SOUTHEAST MISSISSIPPI

CITY           SKY/WX    TMP DP  RH WIND       PRES   REMARKS
LEAKESVILLE*     N/A     75  73  94 CALM        N/A
AGRICOLA*      NOT AVBL

$$

MARINE OBSERVATIONS

STATION/POSITION TIME  TEMP    WIND        PRES    WAVE
                       AIR SEA DIR/SP/G            HT/PER
                 (UTC) (F)     (DEG/KT/KT) (MB)    (FT/S)
PASCAGOULA       1300   82     290/  5/  6 1017.8R
PETIT BOIS ISLND 1300   82     270/  9/ 10 1018.5R
GRAND BAY        1200   79     280/  3     1018.0S
KATRINA CUT      1200   83     280/ 13     1018.3R
CEDAR POINT      1200   82     280/ 14     1016.9R
E DAUPHIN ISLAND 1158   81     270/  6/  7 1017.3R
MIDDLE BAY LIGHT 1200   81     280/ 11     1017.6R
USCG MOBILE BAY  1300   80 83  270/  4/  5 1016.8R
STATE DOCKS      1300   81 83              1017.6R
MEAHER PARK      1200   80     310/  3     1017.6R
WEEKS BAY        1200   71                   N/A
FORT MORGAN      1100   82     290/ 14/ 16 1016.2R
12 S ORANGE BCH  1300   83 84  280/ 12/ 14 1017.8R   2/ 4
PENSACOLA BAY    1300   82 84  280/  3/  5 1018.0R
64 S DAUPHIN ISL 1154   83 84  280/ 10/ 12 1018.7R
67 S FORT MORGAN 1200   82                 1018.3R

$$

SELECTED LOCATIONS ACROSS THE REGION

CITY           SKY/WX    TMP DP  RH WIND       PRES   REMARKS
NEW ORLEANS    MOSUNNY   82  76  81 SW5       30.07R
GULFPORT       SUNNY     83  77  82 W6        30.06R
PASCAGOULA AP  SUNNY     80  77  90 W3        30.06R
PASCAGOULA*      N/A     82  81  94 CALM      30.06R HX  95
HATTIESBURG    MOSUNNY   78  75  90 NW3       30.08R
LAUREL         MOSUNNY   75  72  88 W3        30.09R
MERIDIAN       PTSUNNY   76  71  85 CALM      30.07R
JACKSON        SUNNY     77  74  90 CALM      30.07R
MONTGOMERY     SUNNY     79  72  79 CALM      30.05R
TROY           SUNNY     76  73  91 CALM      30.08R FOG
KINSTON*       NOT AVBL
GENEVA*          N/A     73  72  94 CALM      30.09R
ASHFORD*       NOT AVBL
DOTHAN         MOSUNNY   77  73  88 CALM      30.11R FOG
PANAMA CITY    MOSUNNY   81  75  82 SW5       30.06R

$$



USA.gov is the U.S. government's official web portal to all federal, state and local government web resources and services.